North Labrador Coast - north of Saglek: Past 24 Hour Conditions

 

Taloyoak Airport

02:00 AM MDT 24 April 2014
This table is a summary of hourly weather conditions for the past 24 hours.
Date / Time
(MDT)
Wind(knots) Conditions Visibility(km) Pressure(kPa) Air tempC) Relative humidity(%) Dew pointC) Wind Chill
24 April 2014
2:00 NW 13 Clear 24 102.6 -23 74 -26 -35
1:00 NW 13 gust 19 Clear 24 102.6 -21 76 -24 -32
0:00 NW 14 Clear 24 102.5 -19 78 -22 -31
23 April 2014
23:00 W 10 gust 19 Clear 24 102.5 -17 76 -20 -27
22:00 W 8 Clear 24 102.5 -17 81 -19 -25
21:00 W 8 Mainly Clear 24 102.5 -16 82 -18 -24
20:00 W 12 Partly Cloudy 24 102.4 -15 78 -18 -25
19:00 W 6 Partly Cloudy 24 102.4 -15 83 -17 -21
18:00 W 13 Drifting Snow 16 102.4 -14 77 -17 -23
17:00 W 16 Light Snow 16 102.4 -13 78 -16 -23
16:00 WSW 11 Light Snow 10 102.4 -13 72 -17 -22
15:00 W 13 Light Snow 10 102.4 -13 81 -16 -23
14:00 WSW 14 Ice Crystals 21 102.5 -14 80 -17 -25
13:00 SW 14 Light Snow 16 102.4 -15 79 -17 -25
12:00 SW 8 Light Snow 10 102.4 -15 75 -19 -23
11:00 W 15 Light Snow 10 102.4 -16 77 -19 -27
10:00 WSW 7 Light Snow 10 102.5 -16 77 -20 -24
9:00 WNW 10 Ice Crystals 16 102.5 -17 76 -20 -26
8:00 NW 17 Ice Crystals 16 102.5 -18 75 -21 -30
7:00 WNW 17 Mainly Sunny 24 102.5 -20 67 -24 -32
6:00 NW 7 Mainly Sunny 24 102.5 -22 68 -26 -31
5:00 calm Mainly Sunny 24 102.5 -23 73 -27 *
4:00 calm Sunny 24 102.5 -21 75 -24 *
3:00 N 2 Clear 24 102.4 -22 81 -25 -26
2:00 NNW 7 Clear 24 102.4 -22 81 -24 -31
 
Map of Arctic - Eastern Arctic marine weather areas Baker Lake Airport Chesterfield Inlet Airport Coral Harbour Airport Gjoa Haven Airport Kugaaruk Airport Rankin Inlet Airport Shepherd Bay Airport Whale Cove Airport Arctic Bay Brevoort Island Qikiqtarjuaq Airport Cape Dorset Airport Cape Dyer Cape Hooper Clyde Airport Grise Fiord Airport Hall Beach Airport Igloolik Airport Iqaluit Airport Longstaff Bluff Pangnirtung Airport Pond Inlet Airport Repulse Bay Airport Resolute Airport Resolution Island Rowley Island Airport Taloyoak Airport Wager Bay Akulivik Airport Ivujivik Airport Puvirnituq Airport Kangiqsujuaq Airport Kangirsuk Airport Quaqtaq Airport Tasiujaq Airport Cape Kakkiviak Cape Kiglapait Nain Airport Saglek Cape Mercy Kimmirut Airport Aupaluk Airport Salluit Airport Kangiqsualujjuaq Airport Fort Ross
Legend: buoyBuoy land stationLand Station